| time (UTC) | temp F | wind direction | speed knots | gust knots | rain 1hr in | rain 24hr in | rain mn in | humidity % | barometer mb |
| 20260903025541 | 76 | 211 | 0.0 | 0.0 | 0.00 | 0.00 | 0.00 | 87 | 1017.3 |
| 20260903025041 | 76 | 211 | 0.0 | 0.0 | 0.00 | 0.00 | 0.00 | 87 | 1017.2 |
| 20260903024041 | 76 | 211 | 0.0 | 0.0 | 0.00 | 0.00 | 0.00 | 86 | 1017.3 |
| 20260903023541 | 77 | 211 | 0.0 | 0.0 | 0.00 | 0.00 | 0.00 | 86 | 1017.3 |
| 20260903023041 | 77 | 211 | 0.0 | 0.0 | 0.00 | 0.00 | 0.00 | 85 | 1017.3 |
| 20260903022541 | 77 | 211 | 0.0 | 0.0 | 0.00 | 0.00 | 0.00 | 85 | 1017.3 |
| 20260903022041 | 77 | 211 | 0.0 | 0.0 | 0.00 | 0.00 | 0.00 | 86 | 1017.4 |
| 20260903021541 | 78 | 211 | 0.0 | 0.0 | 0.00 | 0.00 | 0.00 | 86 | 1017.3 |
| 20260903020540 | 78 | 211 | 0.0 | 0.0 | 0.00 | 0.00 | 0.00 | 85 | 1017.3 |
| 20260903020040 | 78 | 211 | 0.0 | 0.0 | 0.00 | 0.00 | 0.00 | 84 | 1017.4 |
| 20260903015540 | 78 | 211 | 0.0 | 0.0 | 0.00 | 0.00 | 0.00 | 83 | 1017.3 |
| 20260903015040 | 78 | 211 | 0.0 | 0.0 | 0.00 | 0.00 | 0.00 | 83 | 1017.3 |
| 20260903014540 | 79 | 211 | 0.0 | 0.0 | 0.00 | 0.00 | 0.00 | 83 | 1017.3 |
| 20260903014040 | 79 | 211 | 0.0 | 0.0 | 0.00 | 0.00 | 0.00 | 83 | 1017.3 |
| 20260903013040 | 80 | 211 | 0.0 | 0.0 | 0.00 | 0.00 | 0.00 | 82 | 1017.2 |
| 20260903012540 | 80 | 211 | 0.0 | 0.0 | 0.00 | 0.00 | 0.00 | 81 | 1017.1 |
| 20260903012040 | 80 | 211 | 0.0 | 0.0 | 0.00 | 0.00 | 0.00 | 81 | 1017.1 |
| 20260903011540 | 80 | 211 | 0.0 | 0.0 | 0.00 | 0.00 | 0.00 | 81 | 1017.1 |
| 20260903011040 | 81 | 211 | 0.0 | 0.0 | 0.00 | 0.00 | 0.00 | 80 | 1017.1 |
| 20260903010540 | 81 | 211 | 0.0 | 0.0 | 0.00 | 0.00 | 0.00 | 80 | 1017.0 |
| 20260903010040 | 81 | 211 | 0.0 | 0.0 | 0.00 | 0.00 | 0.00 | 80 | 1016.9 |
| 20260903005040 | 82 | 211 | 0.0 | 0.0 | 0.00 | 0.00 | 0.00 | 78 | 1016.9 |
| 20260903004540 | 83 | 211 | 0.0 | 0.0 | 0.00 | 0.00 | 0.00 | 77 | 1016.8 |
| 20260903004040 | 83 | 211 | 0.0 | 1.7 | 0.00 | 0.00 | 0.00 | 76 | 1016.7 |
| 20260903003540 | 83 | 211 | 0.0 | 1.7 | 0.00 | 0.00 | 0.00 | 74 | 1016.8 |
| 20260903003039 | 84 | 211 | 0.0 | 0.0 | 0.00 | 0.00 | 0.00 | 72 | 1016.8 |
| 20260903002540 | 85 | 211 | 0.0 | 0.0 | 0.00 | 0.00 | 0.00 | 70 | 1016.8 |
| 20260903002040 | 85 | 211 | 0.0 | 0.0 | 0.00 | 0.00 | 0.00 | 69 | 1016.9 |
| 20260903001039 | 87 | 211 | 0.0 | 0.0 | 0.00 | 0.00 | 0.00 | 65 | 1016.8 |
| 20260903000539 | 88 | 211 | 0.0 | 0.0 | 0.00 | 0.00 | 0.00 | 63 | 1017.0 |
| 20260903000039 | 88 | 211 | 0.0 | 0.0 | 0.00 | 0.00 | 0.00 | 62 | 1017.0 |
| 20260902235539 | 89 | 211 | 0.0 | 0.0 | 0.00 | 0.00 | 0.00 | 61 | 1016.6 |
| 20260902235039 | 90 | 211 | 0.0 | 0.0 | 0.00 | 0.00 | 0.00 | 61 | 1016.7 |
| 20260902234539 | 91 | 211 | 0.0 | 0.0 | 0.00 | 0.00 | 0.00 | 59 | 1016.8 |
| 20260902234039 | 91 | 211 | 0.0 | 3.5 | 0.00 | 0.00 | 0.00 | 58 | 1016.9 |
| 20260902233039 | 92 | 235 | 0.0 | 1.7 | 0.00 | 0.00 | 0.00 | 55 | 1016.9 |
| 20260902232539 | 93 | 235 | 0.0 | 5.2 | 0.00 | 0.00 | 0.00 | 54 | 1016.8 |
| 20260902232039 | 94 | 199 | 0.0 | 5.2 | 0.00 | 0.00 | 0.00 | 53 | 1016.8 |
| 20260902231539 | 95 | 233 | 0.0 | 3.5 | 0.00 | 0.00 | 0.00 | 52 | 1017.0 |
| 20260902231039 | 96 | 200 | 1.7 | 3.5 | 0.00 | 0.00 | 0.00 | 50 | 1017.0 |
| 20260902230539 | 97 | 226 | 0.0 | 7.0 | 0.00 | 0.00 | 0.00 | 49 | 1017.0 |
| 20260902230039 | 97 | 216 | 3.5 | 7.0 | 0.00 | 0.00 | 0.00 | 49 | 1017.0 |
| 20260902225539 | 98 | 216 | 7.0 | 7.0 | 0.00 | 0.00 | 0.00 | 46 | 1016.9 |
| 20260902225039 | 99 | 221 | 1.7 | 7.0 | 0.00 | 0.00 | 0.00 | 46 | 1016.9 |
| 20260902224539 | 99 | 221 | 1.7 | 3.5 | 0.00 | 0.00 | 0.00 | 48 | 1016.9 |
| 20260902224039 | 99 | 204 | 0.0 | 3.5 | 0.00 | 0.00 | 0.00 | 46 | 1017.0 |
| 20260902223539 | 99 | 235 | 0.0 | 3.5 | 0.00 | 0.00 | 0.00 | 46 | 1017.0 |
| 20260902223039 | 98 | 294 | 0.0 | 3.5 | 0.00 | 0.00 | 0.00 | 48 | 1017.0 |
| 20260902222538 | 98 | 285 | 0.0 | 3.5 | 0.00 | 0.00 | 0.00 | 46 | 1017.1 |
| 20260902222039 | 98 | 234 | 0.0 | 8.7 | 0.00 | 0.00 | 0.00 | 47 | 1017.1 |
| 20260902221038 | 98 | 185 | 0.0 | 7.0 | 0.00 | 0.00 | 0.00 | 47 | 1017.2 |
| 20260902220038 | 99 | 258 | 0.0 | 5.2 | 0.00 | 0.00 | 0.00 | 47 | 1017.3 |
| 20260902215538 | 99 | 203 | 3.5 | 5.2 | 0.00 | 0.00 | 0.00 | 46 | 1017.3 |
| 20260902215038 | 98 | 253 | 1.7 | 5.2 | 0.00 | 0.00 | 0.00 | 46 | 1017.3 |
| 20260902214538 | 98 | 273 | 0.0 | 7.0 | 0.00 | 0.00 | 0.00 | 47 | 1017.3 |
| 20260902214038 | 99 | 199 | 1.7 | 7.0 | 0.00 | 0.00 | 0.00 | 47 | 1017.4 |
| 20260902213538 | 99 | 214 | 0.0 | 5.2 | 0.00 | 0.00 | 0.00 | 47 | 1017.4 |
| 20260902212538 | 98 | 326 | 0.0 | 7.0 | 0.00 | 0.00 | 0.00 | 47 | 1017.4 |
| 20260902212038 | 98 | 218 | 1.7 | 8.7 | 0.00 | 0.00 | 0.00 | 46 | 1017.5 |
| 20260902210038 | 99 | 204 | 5.2 | 7.0 | 0.00 | 0.00 | 0.00 | 47 | 1017.5 |
| 20260902205037 | 99 | 247 | 1.7 | 8.7 | 0.00 | 0.00 | 0.00 | 48 | 1017.6 |
| 20260902204538 | 99 | 207 | 7.0 | 8.7 | 0.00 | 0.00 | 0.00 | 48 | 1017.6 |
| 20260902203538 | 97 | 247 | 0.0 | 3.5 | 0.00 | 0.00 | 0.00 | 49 | 1017.6 |
| 20260902203038 | 97 | 255 | 0.0 | 3.5 | 0.00 | 0.00 | 0.00 | 48 | 1017.7 |
| 20260902202537 | 98 | 207 | 0.0 | 7.0 | 0.00 | 0.00 | 0.00 | 48 | 1017.8 |
| 20260902201537 | 99 | 136 | 0.0 | 7.0 | 0.00 | 0.00 | 0.00 | 47 | 1017.8 |
| 20260902201037 | 99 | 278 | 1.7 | 10.4 | 0.00 | 0.00 | 0.00 | 47 | 1017.9 |
| 20260902200537 | 99 | 256 | 0.0 | 10.4 | 0.00 | 0.00 | 0.00 | 48 | 1017.9 |
| 20260902200037 | 99 | 150 | 0.0 | 3.5 | 0.00 | 0.00 | 0.00 | 49 | 1017.9 |
| 20260902195537 | 98 | 265 | 1.7 | 7.0 | 0.00 | 0.00 | 0.00 | 49 | 1017.9 |
| 20260902194537 | 97 | 213 | 3.5 | 5.2 | 0.00 | 0.00 | 0.00 | 52 | 1018.0 |
| 20260902194037 | 97 | 247 | 1.7 | 5.2 | 0.00 | 0.00 | 0.00 | 51 | 1018.1 |
| 20260902193537 | 97 | 207 | 0.0 | 7.0 | 0.00 | 0.00 | 0.00 | 49 | 1018.1 |
| 20260902193037 | 98 | 269 | 1.7 | 8.7 | 0.00 | 0.00 | 0.00 | 50 | 1018.2 |
| 20260902192537 | 98 | 235 | 3.5 | 8.7 | 0.00 | 0.00 | 0.00 | 48 | 1018.3 |
| 20260902192037 | 98 | 342 | 3.5 | 7.0 | 0.00 | 0.00 | 0.00 | 47 | 1018.3 |
| 20260902191037 | 98 | 218 | 0.0 | 8.7 | 0.00 | 0.00 | 0.00 | 45 | 1018.4 |
| 20260902190537 | 98 | 278 | 1.7 | 8.7 | 0.00 | 0.00 | 0.00 | 46 | 1018.4 |
| 20260902190037 | 98 | 11 | 1.7 | 7.0 | 0.00 | 0.00 | 0.00 | 50 | 1018.4 |
| 20260902185537 | 98 | 352 | 3.5 | 7.0 | 0.00 | 0.00 | 0.00 | 49 | 1018.6 |
| 20260902185037 | 98 | 242 | 1.7 | 7.0 | 0.00 | 0.00 | 0.00 | 49 | 1018.6 |
| 20260902184537 | 98 | 199 | 0.0 | 10.4 | 0.00 | 0.00 | 0.00 | 50 | 1018.6 |
| 20260902184037 | 98 | 231 | 1.7 | 10.4 | 0.00 | 0.00 | 0.00 | 50 | 1018.6 |
| 20260902183537 | 98 | 228 | 7.0 | 10.4 | 0.00 | 0.00 | 0.00 | 50 | 1018.7 |
| 20260902183036 | 98 | 248 | 1.7 | 7.0 | 0.00 | 0.00 | 0.00 | 50 | 1018.6 |
| 20260902182536 | 97 | 328 | 0.0 | 8.7 | 0.00 | 0.00 | 0.00 | 49 | 1018.7 |
| 20260902181036 | 97 | 206 | 1.7 | 8.7 | 0.00 | 0.00 | 0.00 | 51 | 1018.7 |
| 20260902180036 | 97 | 226 | 3.5 | 13.9 | 0.00 | 0.00 | 0.00 | 51 | 1018.8 |
| 20260902175536 | 97 | 333 | 0.0 | 13.9 | 0.00 | 0.00 | 0.00 | 49 | 1018.9 |
| 20260902175037 | 97 | 212 | 0.0 | 8.7 | 0.00 | 0.00 | 0.00 | 52 | 1018.9 |
| 20260902174536 | 97 | 197 | 5.2 | 8.7 | 0.00 | 0.00 | 0.00 | 51 | 1019.0 |
| 20260902174036 | 97 | 242 | 1.7 | 5.2 | 0.00 | 0.00 | 0.00 | 51 | 1019.1 |
| 20260902173536 | 96 | 218 | 3.5 | 8.7 | 0.00 | 0.00 | 0.00 | 51 | 1019.0 |
| 20260902173036 | 96 | 269 | 1.7 | 8.7 | 0.00 | 0.00 | 0.00 | 53 | 1019.0 |
| 20260902172536 | 96 | 274 | 1.7 | 12.2 | 0.00 | 0.00 | 0.00 | 55 | 1019.1 |
| 20260902172036 | 95 | 217 | 1.7 | 12.2 | 0.00 | 0.00 | 0.00 | 54 | 1019.1 |
| 20260902171536 | 96 | 195 | 8.7 | 12.2 | 0.00 | 0.00 | 0.00 | 55 | 1019.4 |
| 20260902171036 | 95 | 187 | 0.0 | 8.7 | 0.00 | 0.00 | 0.00 | 53 | 1019.4 |
| 20260902170536 | 95 | 266 | 1.7 | 8.7 | 0.00 | 0.00 | 0.00 | 55 | 1019.5 |
| 20260902170036 | 95 | 199 | 3.5 | 5.2 | 0.00 | 0.00 | 0.00 | 55 | 1019.6 |
| 20260902165536 | 95 | 46 | 0.0 | 5.2 | 0.00 | 0.00 | 0.00 | 56 | 1019.6 |
| 20260902165036 | 95 | 8 | 5.2 | 5.2 | 0.00 | 0.00 | 0.00 | 55 | 1019.6 |
| 20260902164536 | 95 | 242 | 0.0 | 5.2 | 0.00 | 0.00 | 0.00 | 55 | 1019.7 |
| 20260902164036 | 95 | 351 | 0.0 | 10.4 | 0.00 | 0.00 | 0.00 | 54 | 1019.7 |
| 20260902163536 | 96 | 143 | 1.7 | 10.4 | 0.00 | 0.00 | 0.00 | 56 | 1019.8 |
| 20260902162536 | 95 | 293 | 1.7 | 5.2 | 0.00 | 0.00 | 0.00 | 55 | 1019.9 |
| 20260902162036 | 94 | 240 | 0.0 | 7.0 | 0.00 | 0.00 | 0.00 | 58 | 1020.0 |
| 20260902161536 | 94 | 256 | 3.5 | 7.0 | 0.00 | 0.00 | 0.00 | 57 | 1020.0 |
| 20260902161036 | 94 | 261 | 3.5 | 7.0 | 0.00 | 0.00 | 0.00 | 58 | 1020.0 |
| 20260902160535 | 94 | 358 | 3.5 | 7.0 | 0.00 | 0.00 | 0.00 | 60 | 1020.0 |
| 20260902160035 | 93 | 263 | 0.0 | 10.4 | 0.00 | 0.00 | 0.00 | 62 | 1020.0 |
| 20260902155536 | 93 | 192 | 0.0 | 10.4 | 0.00 | 0.00 | 0.00 | 62 | 1020.1 |
| 20260902155035 | 92 | 255 | 0.0 | 5.2 | 0.00 | 0.00 | 0.00 | 63 | 1020.0 |
| 20260902154535 | 91 | 199 | 3.5 | 7.0 | 0.00 | 0.00 | 0.00 | 65 | 1019.9 |
| 20260902153535 | 90 | 207 | 3.5 | 7.0 | 0.00 | 0.00 | 0.00 | 67 | 1020.0 |
| 20260902152535 | 89 | 204 | 3.5 | 5.2 | 0.00 | 0.00 | 0.00 | 68 | 1020.0 |
| 20260902152035 | 89 | 248 | 3.5 | 5.2 | 0.00 | 0.00 | 0.00 | 68 | 1020.0 |
| 20260902151535 | 89 | 197 | 1.7 | 5.2 | 0.00 | 0.00 | 0.00 | 69 | 1020.1 |
| 20260902151035 | 88 | 226 | 1.7 | 5.2 | 0.00 | 0.00 | 0.00 | 68 | 1020.1 |
| 20260902150035 | 88 | 13 | 1.7 | 3.5 | 0.00 | 0.00 | 0.00 | 71 | 1020.0 |
| 20260902145535 | 87 | 19 | 1.7 | 5.2 | 0.00 | 0.00 | 0.00 | 70 | 1019.9 |
| 20260902145035 | 87 | 272 | 0.0 | 5.2 | 0.00 | 0.00 | 0.00 | 70 | 1020.0 |
| 20260902144535 | 87 | 252 | 0.0 | 5.2 | 0.00 | 0.00 | 0.00 | 71 | 1020.0 |
| 20260902143535 | 87 | 263 | 0.0 | 5.2 | 0.00 | 0.00 | 0.00 | 69 | 1020.0 |
| 20260902143035 | 87 | 227 | 1.7 | 5.2 | 0.00 | 0.00 | 0.00 | 70 | 1019.9 |
| 20260902142535 | 87 | 202 | 3.5 | 7.0 | 0.00 | 0.00 | 0.00 | 70 | 1019.9 |
| 20260902141534 | 86 | 247 | 0.0 | 1.7 | 0.00 | 0.00 | 0.00 | 71 | 1019.9 |
| 20260902141035 | 86 | 210 | 0.0 | 0.0 | 0.00 | 0.00 | 0.00 | 71 | 1019.9 |
| 20260902140534 | 86 | 218 | 0.0 | 0.0 | 0.00 | 0.00 | 0.00 | 70 | 1020.0 |
| 20260902140034 | 86 | 210 | 0.0 | 0.0 | 0.00 | 0.00 | 0.00 | 71 | 1020.0 |
| 20260902135534 | 86 | 210 | 0.0 | 0.0 | 0.00 | 0.00 | 0.00 | 71 | 1020.0 |
| 20260902135034 | 86 | 218 | 0.0 | 0.0 | 0.00 | 0.00 | 0.00 | 72 | 1019.9 |
| 20260902134034 | 86 | 207 | 0.0 | 0.0 | 0.00 | 0.00 | 0.00 | 72 | 1020.0 |
| 20260902133534 | 85 | 214 | 0.0 | 0.0 | 0.00 | 0.00 | 0.00 | 73 | 1020.0 |
| 20260902133034 | 85 | 214 | 0.0 | 0.0 | 0.00 | 0.00 | 0.00 | 74 | 1020.1 |
| 20260902132534 | 84 | 214 | 0.0 | 0.0 | 0.00 | 0.00 | 0.00 | 75 | 1020.0 |
| 20260902132034 | 83 | 207 | 0.0 | 0.0 | 0.00 | 0.00 | 0.00 | 79 | 1019.9 |
| 20260902131034 | 82 | 217 | 0.0 | 0.0 | 0.00 | 0.00 | 0.00 | 79 | 1019.9 |
| 20260902130034 | 80 | 203 | 0.0 | 0.0 | 0.00 | 0.00 | 0.00 | 82 | 1019.9 |
| 20260902124534 | 78 | 203 | 0.0 | 0.0 | 0.00 | 0.00 | 0.00 | 94 | 1019.8 |
| 20260902124033 | 77 | 203 | 0.0 | 0.0 | 0.00 | 0.00 | 0.00 | 95 | 1019.7 |
| 20260902123034 | 74 | 203 | 0.0 | 0.0 | 0.00 | 0.00 | 0.00 | 95 | 1019.7 |
| 20260902122534 | 73 | 203 | 0.0 | 0.0 | 0.00 | 0.00 | 0.00 | 95 | 1019.6 |
| 20260902122034 | 72 | 203 | 0.0 | 0.0 | 0.00 | 0.00 | 0.00 | 95 | 1019.6 |
| 20260902121533 | 71 | 203 | 0.0 | 0.0 | 0.00 | 0.00 | 0.00 | 95 | 1019.5 |
| 20260902121033 | 70 | 203 | 0.0 | 0.0 | 0.00 | 0.00 | 0.00 | 95 | 1019.4 |
| 20260902120533 | 69 | 202 | 0.0 | 0.0 | 0.00 | 0.00 | 0.00 | 95 | 1019.3 |
| 20260902120033 | 69 | 202 | 0.0 | 0.0 | 0.00 | 0.00 | 0.00 | 95 | 1019.3 |
| 20260902114533 | 68 | 202 | 0.0 | 0.0 | 0.00 | 0.00 | 0.00 | 94 | 1019.4 |
| 20260902114033 | 68 | 202 | 0.0 | 0.0 | 0.00 | 0.00 | 0.00 | 94 | 1019.3 |
| 20260902113533 | 68 | 202 | 0.0 | 0.0 | 0.00 | 0.00 | 0.00 | 94 | 1019.2 |
| 20260902113033 | 68 | 202 | 0.0 | 0.0 | 0.00 | 0.00 | 0.00 | 94 | 1019.2 |
| 20260902112533 | 68 | 202 | 0.0 | 0.0 | 0.00 | 0.00 | 0.00 | 94 | 1019.3 |
| 20260902111533 | 68 | 202 | 0.0 | 0.0 | 0.00 | 0.00 | 0.00 | 94 | 1019.1 |
| 20260902111033 | 68 | 202 | 0.0 | 0.0 | 0.00 | 0.00 | 0.00 | 94 | 1019.1 |
| 20260902110533 | 68 | 202 | 0.0 | 0.0 | 0.00 | 0.00 | 0.00 | 94 | 1019.1 |
| 20260902110033 | 68 | 202 | 0.0 | 0.0 | 0.00 | 0.00 | 0.00 | 94 | 1019.0 |
| 20260902104533 | 68 | 202 | 0.0 | 0.0 | 0.00 | 0.00 | 0.00 | 94 | 1019.2 |
| 20260902104033 | 68 | 202 | 0.0 | 0.0 | 0.00 | 0.00 | 0.00 | 94 | 1019.1 |
| 20260902103532 | 68 | 202 | 0.0 | 0.0 | 0.00 | 0.00 | 0.00 | 94 | 1019.0 |
| 20260902103033 | 68 | 202 | 0.0 | 0.0 | 0.00 | 0.00 | 0.00 | 94 | 1019.0 |
| 20260902102532 | 68 | 202 | 0.0 | 0.0 | 0.00 | 0.00 | 0.00 | 94 | 1018.9 |
| 20260902102032 | 68 | 202 | 0.0 | 0.0 | 0.00 | 0.00 | 0.00 | 94 | 1018.9 |
| 20260902101032 | 68 | 202 | 0.0 | 0.0 | 0.00 | 0.00 | 0.00 | 94 | 1018.9 |
| 20260902100532 | 68 | 202 | 0.0 | 0.0 | 0.00 | 0.00 | 0.00 | 94 | 1018.9 |
| 20260902095532 | 68 | 202 | 0.0 | 0.0 | 0.00 | 0.00 | 0.00 | 94 | 1018.8 |
| 20260902095032 | 68 | 202 | 0.0 | 0.0 | 0.00 | 0.00 | 0.00 | 94 | 1018.8 |
| 20260902094032 | 68 | 202 | 0.0 | 0.0 | 0.00 | 0.00 | 0.00 | 94 | 1018.6 |
| 20260902093532 | 68 | 202 | 0.0 | 0.0 | 0.00 | 0.00 | 0.00 | 94 | 1018.6 |
| 20260902093032 | 69 | 202 | 0.0 | 0.0 | 0.00 | 0.00 | 0.00 | 94 | 1018.6 |
| 20260902092532 | 69 | 202 | 0.0 | 0.0 | 0.00 | 0.00 | 0.00 | 94 | 1018.6 |
| 20260902091532 | 69 | 202 | 0.0 | 0.0 | 0.00 | 0.00 | 0.00 | 94 | 1018.5 |
| 20260902091032 | 69 | 202 | 0.0 | 0.0 | 0.00 | 0.00 | 0.00 | 94 | 1018.6 |
| 20260902090532 | 69 | 202 | 0.0 | 0.0 | 0.00 | 0.00 | 0.00 | 94 | 1018.6 |
| 20260902090032 | 69 | 202 | 0.0 | 0.0 | 0.00 | 0.00 | 0.00 | 94 | 1018.6 |
| 20260902085532 | 69 | 202 | 0.0 | 0.0 | 0.00 | 0.00 | 0.00 | 94 | 1018.7 |
| 20260902084032 | 70 | 202 | 0.0 | 0.0 | 0.00 | 0.00 | 0.00 | 94 | 1018.5 |
| 20260902083532 | 69 | 202 | 0.0 | 0.0 | 0.00 | 0.00 | 0.00 | 94 | 1018.6 |
| 20260902083032 | 69 | 202 | 0.0 | 0.0 | 0.00 | 0.00 | 0.00 | 94 | 1018.6 |
| 20260902082532 | 69 | 202 | 0.0 | 0.0 | 0.00 | 0.00 | 0.00 | 94 | 1018.5 |
| 20260902082032 | 69 | 202 | 0.0 | 0.0 | 0.00 | 0.00 | 0.00 | 94 | 1018.6 |
| 20260902081532 | 69 | 202 | 0.0 | 0.0 | 0.00 | 0.00 | 0.00 | 94 | 1018.6 |
| 20260902081032 | 69 | 202 | 0.0 | 0.0 | 0.00 | 0.00 | 0.00 | 94 | 1018.6 |
| 20260902080531 | 69 | 202 | 0.0 | 0.0 | 0.00 | 0.00 | 0.00 | 94 | 1018.5 |
| 20260902080031 | 69 | 202 | 0.0 | 0.0 | 0.00 | 0.00 | 0.00 | 94 | 1018.5 |
| 20260902075531 | 69 | 202 | 0.0 | 0.0 | 0.00 | 0.00 | 0.00 | 94 | 1018.3 |
| 20260902075031 | 69 | 202 | 0.0 | 0.0 | 0.00 | 0.00 | 0.00 | 94 | 1018.3 |
| 20260902074532 | 70 | 202 | 0.0 | 0.0 | 0.00 | 0.00 | 0.00 | 94 | 1018.4 |
| 20260902074031 | 70 | 202 | 0.0 | 0.0 | 0.00 | 0.00 | 0.00 | 94 | 1018.4 |
| 20260902073031 | 70 | 202 | 0.0 | 0.0 | 0.00 | 0.00 | 0.00 | 94 | 1018.4 |
| 20260902072531 | 70 | 202 | 0.0 | 0.0 | 0.00 | 0.00 | 0.00 | 94 | 1018.4 |
| 20260902072031 | 70 | 202 | 0.0 | 0.0 | 0.00 | 0.00 | 0.00 | 94 | 1018.3 |
| 20260902071031 | 70 | 202 | 0.0 | 0.0 | 0.00 | 0.00 | 0.00 | 94 | 1018.3 |
| 20260902070531 | 71 | 202 | 0.0 | 0.0 | 0.00 | 0.00 | 0.00 | 94 | 1018.3 |
| 20260902065531 | 70 | 202 | 0.0 | 0.0 | 0.00 | 0.00 | 0.00 | 94 | 1018.3 |
| 20260902065031 | 70 | 202 | 0.0 | 0.0 | 0.00 | 0.00 | 0.00 | 94 | 1018.3 |
| 20260902064531 | 70 | 202 | 0.0 | 0.0 | 0.00 | 0.00 | 0.00 | 94 | 1018.2 |
| 20260902064031 | 70 | 202 | 0.0 | 0.0 | 0.00 | 0.00 | 0.00 | 94 | 1018.3 |
| 20260902063531 | 71 | 202 | 0.0 | 0.0 | 0.00 | 0.00 | 0.00 | 94 | 1018.5 |
| 20260902063031 | 71 | 202 | 0.0 | 0.0 | 0.00 | 0.00 | 0.00 | 93 | 1018.5 |
| 20260902062531 | 71 | 202 | 0.0 | 0.0 | 0.00 | 0.00 | 0.00 | 93 | 1018.5 |
| 20260902061031 | 71 | 202 | 0.0 | 0.0 | 0.00 | 0.00 | 0.00 | 93 | 1018.5 |
| 20260902060531 | 71 | 202 | 0.0 | 0.0 | 0.00 | 0.00 | 0.00 | 93 | 1018.6 |
| 20260902060031 | 71 | 202 | 0.0 | 0.0 | 0.00 | 0.00 | 0.00 | 93 | 1018.6 |
| 20260902055031 | 71 | 202 | 0.0 | 0.0 | 0.00 | 0.00 | 0.00 | 93 | 1018.7 |
| 20260902054531 | 71 | 202 | 0.0 | 0.0 | 0.00 | 0.00 | 0.00 | 93 | 1018.7 |
| 20260902054031 | 71 | 202 | 0.0 | 0.0 | 0.00 | 0.00 | 0.00 | 93 | 1018.6 |
| 20260902053531 | 71 | 202 | 0.0 | 0.0 | 0.00 | 0.00 | 0.00 | 93 | 1018.6 |
| 20260902053031 | 71 | 202 | 0.0 | 0.0 | 0.00 | 0.00 | 0.00 | 93 | 1018.6 |
| 20260902052031 | 72 | 203 | 0.0 | 0.0 | 0.00 | 0.00 | 0.00 | 93 | 1018.6 |
| 20260902051030 | 72 | 202 | 0.0 | 0.0 | 0.00 | 0.00 | 0.00 | 93 | 1018.6 |
| 20260902050531 | 72 | 203 | 0.0 | 0.0 | 0.00 | 0.00 | 0.00 | 93 | 1018.5 |
| 20260902050030 | 72 | 203 | 0.0 | 0.0 | 0.00 | 0.00 | 0.00 | 93 | 1018.5 |
| 20260902045530 | 72 | 203 | 0.0 | 0.0 | 0.00 | 0.00 | 0.00 | 93 | 1018.5 |
| 20260902045030 | 73 | 203 | 0.0 | 0.0 | 0.00 | 0.00 | 0.00 | 93 | 1018.5 |
| 20260902044530 | 73 | 203 | 0.0 | 0.0 | 0.00 | 0.00 | 0.00 | 93 | 1018.4 |
| 20260902043530 | 73 | 203 | 0.0 | 0.0 | 0.00 | 0.00 | 0.00 | 93 | 1018.4 |
| 20260902043030 | 73 | 203 | 0.0 | 0.0 | 0.00 | 0.00 | 0.00 | 92 | 1018.4 |
| 20260902042530 | 73 | 203 | 0.0 | 0.0 | 0.00 | 0.00 | 0.00 | 92 | 1018.3 |
| 20260902042030 | 73 | 203 | 0.0 | 0.0 | 0.00 | 0.00 | 0.00 | 92 | 1018.4 |
| 20260902041530 | 73 | 203 | 0.0 | 0.0 | 0.00 | 0.00 | 0.00 | 92 | 1018.4 |
| 20260902041030 | 73 | 203 | 0.0 | 0.0 | 0.00 | 0.00 | 0.00 | 92 | 1018.4 |
| 20260902040530 | 73 | 203 | 0.0 | 0.0 | 0.00 | 0.00 | 0.00 | 92 | 1018.4 |
| 20260902040030 | 73 | 203 | 0.0 | 0.0 | 0.00 | 0.00 | 0.00 | 92 | 1018.5 |
| 20260902035530 | 73 | 203 | 0.0 | 0.0 | 0.00 | 0.00 | 0.00 | 92 | 1018.4 |
| 20260902035030 | 73 | 204 | 0.0 | 0.0 | 0.00 | 0.00 | 0.00 | 92 | 1018.4 |
| 20260902034530 | 73 | 203 | 0.0 | 0.0 | 0.00 | 0.00 | 0.00 | 92 | 1018.4 |
| 20260902033529 | 74 | 203 | 0.0 | 0.0 | 0.00 | 0.00 | 0.00 | 91 | 1018.4 |
| 20260902033029 | 74 | 203 | 0.0 | 0.0 | 0.00 | 0.00 | 0.00 | 91 | 1018.5 |
| 20260902032529 | 74 | 204 | 0.0 | 0.0 | 0.00 | 0.00 | 0.00 | 91 | 1018.4 |
| 20260902032029 | 74 | 203 | 0.0 | 0.0 | 0.00 | 0.00 | 0.00 | 91 | 1018.4 |
| 20260902031530 | 74 | 203 | 0.0 | 0.0 | 0.00 | 0.00 | 0.00 | 91 | 1018.4 |
| 20260902031029 | 74 | 204 | 0.0 | 0.0 | 0.00 | 0.00 | 0.00 | 90 | 1018.4 |
| 20260902030529 | 74 | 203 | 0.0 | 0.0 | 0.00 | 0.00 | 0.00 | 90 | 1018.5 |